OPS 7034 (TRANSIT 18)

Last updated on Sat Sep 05 2026 00:03:34 GMT+0000 (Coordinated Universal Time)

1 03133U 68012A 26247.57216014 .00000067 00000+0 85359-4 0 9990 2 03133 90.0219 274.3219 0075666 119.7315 44.8452 13.51622067605098
UTC large
Height (km)
Speed (km/s)
/
Latitude / Longitude
Inclination (degrees)
Orbital Period (minutes)
Azimuth
Elevation
Range (km)
Doppler Factor

Next 0 passes for location: London (51.5072 / 0.1276)

No passes found over London.
OPS 7034 (TRANSIT 18)